Location: ???????
(55.7027°N, 37.3832°E)
Time: 15:48:45
(UTC+00:00)

Cosmos 2061 Rocket - Pass Details

Date: 14 April 2026
Orbit: 965 x 1011 km, 82.9° (Epoch: 17 May)

Event Time Altitude Azimuth Distance (km) Brightness Sun altitude
Exits shadow 22:14:38 52° 208° (SSW) 1,191 4.0 -24.0°
Maximum altitude 22:16:15 79° 282° (WNW) 992 3.9 -23.9°
Drops below altitude 10° 22:22:30 10° 10° (N) 2,719 7.4 -23.7°
Sets 22:25:01 0° 12° (NNE) 3,672 8.5 -23.6°
